Flag for Colombia Weather past 2 weeks in Cali, Colombia

Now
86 °F

Scattered clouds.


Feels Like: 87 °F
Forecast: 71 / 83 °F
Wind: 3 mph from East

Location: Cali / Alfonso Bonillaaragon

Current Time: Aug 2, 2015 at 2:08:08 PM

Latest Report: Aug 2, 2015 at 1:00 PM


Visibility: N/A

Pressure: 29.91 "Hg (26.86 "Hg at 955m altitude)

Humidity: 49%

Dew point: 64 °F

Location of CaliLocation

Historic Weather in Cali — Graph

°F

Cali temperature yesterday

Maximum temperature yesterday: 86 °F (at 3:00 PM)
Minimum temperature yesterday: 64 °F (at 6:00 AM)
Average temperature yesterday: 77 °F

Past Weeks' High & Low Weather Summary

 TemperatureHumidityPressure
High93 °F (Jul 25, 3:00 PM)100% (Jul 20, 6:00 AM)30.20 "Hg (Jul 20, 6:00 AM)
Low50 °F (Jul 21, 5:00 AM)26% (Jul 25, 5:00 PM)29.80 "Hg (Jul 25, 4:00 PM)
Average75 °F72%29.97 "Hg
* Reported Jul 18 1:00 PM — Aug 2 1:00 PM, Cali, Weather by CustomWeather, © 2015

Note: Actual official high and low records may vary slightly from our data, if they occured in-between our weather recording intervals... More about our weather records

Advertising

Cali weather history for previous 24 hours

 ConditionsComfort  
Time TempWeatherWind HumidityBarometerVisibility
1:00 PM
Sun, Aug 2
86 °FScattered clouds.3 mph49%29.91 "HgN/A
12:00 PM84 °FPartly sunny.3 mph55%29.95 "HgN/A
11:00 AM82 °FPartly sunny.3 mphN/AN/AN/A
10:00 AM79 °FPartly sunny.No wind65%29.98 "Hg6 mi
9:00 AM77 °FPartly sunny.No wind69%29.99 "Hg4 mi
8:00 AM73 °FBroken clouds.3 mph78%29.98 "Hg3 mi
7:00 AM70 °FPartly sunny.3 mph88%29.96 "HgN/A
6:00 AM68 °FPartly cloudy.No wind94%29.92 "HgN/A
5:00 AM68 °FPassing clouds.2 mph94%29.91 "HgN/A
4:00 AM68 °FPassing clouds.5 mph94%29.91 "HgN/A
3:00 AM72 °FPassing clouds.2 mph83%29.91 "HgN/A
2:00 AM72 °FPassing clouds.No wind83%29.92 "HgN/A
1:00 AM72 °FPassing clouds.3 mph83%29.95 "HgN/A
12:00 AM72 °FPassing clouds.5 mph83%29.96 "HgN/A
11:00 PM
Sat, Aug 1
73 °FPassing clouds.5 mph78%29.96 "HgN/A
10:00 PM73 °FPassing clouds.6 mph78%29.94 "HgN/A
9:00 PM75 °FPassing clouds.7 mph74%29.91 "HgN/A
8:00 PM81 °FPassing clouds.12 mph58%29.87 "HgN/A
7:00 PM81 °FPassing clouds.12 mph58%29.87 "HgN/A
6:00 PM82 °FScattered clouds.12 mph55%29.84 "HgN/A
5:00 PM86 °FPartly sunny.14 mph49%29.86 "HgN/A
4:00 PM86 °FPartly sunny.14 mph49%29.86 "HgN/A
3:00 PM86 °FScattered clouds.5 mph49%29.88 "HgN/A
2:00 PM84 °FBroken clouds.5 mph48%29.91 "HgN/A
Weather by CustomWeather, © 2015

See weather overviewHow to use our weather pages